KCIKMI Weather Reports


time (UTC)temp
C
wind
direction
speed
KPH
gust
KPH
rain 1hr
cm
rain 24hr
cm
rain mn
cm
humidity
%
barometer
mb
20260506003024 16 190 1.6 6.4 0.00 0.00 0.00 73 1009.3
20260506002523 16 202 1.6 6.4 0.00 0.00 0.00 73 1009.2
20260506002024 16 202 1.6 6.4 0.00 0.00 0.00 73 1009.1
20260506001524 16 197 1.6 8.0 0.00 0.00 0.00 73 1009.1
20260506001024 16 195 3.2 8.0 0.00 0.00 0.00 72 1009.0
20260506000523 16 215 0.0 6.4 0.00 0.00 0.00 72 1009.0
20260506000024 16 206 1.6 6.4 0.00 0.00 0.00 72 1008.8
20260505235525 16 211 1.6 6.4 0.00 0.00 0.00 72 1008.5
20260505235022 16 204 1.6 6.4 0.00 0.00 0.00 73 1008.5
20260505234522 16 214 1.6 6.4 0.00 0.00 0.00 72 1008.3
20260505234021 16 204 0.0 12.9 0.00 0.00 0.00 72 1008.2
20260505233521 16 197 3.2 12.9 0.00 0.00 0.00 71 1008.1
20260505233022 16 176 3.2 12.9 0.00 0.00 0.00 71 1008.0
20260505232521 16 190 3.2 11.3 0.00 0.00 0.00 71 1008.1
20260505232022 16 205 3.2 14.5 0.00 0.00 0.00 71 1008.0
20260505231528 16 186 4.8 14.5 0.00 0.00 0.00 70 1007.9
20260505231021 17 203 4.8 16.1 0.00 0.00 0.00 70 1008.0
20260505230520 17 169 6.4 16.1 0.00 0.00 0.00 69 1008.1
20260505230027 17 170 3.2 12.9 0.00 0.00 0.00 69 1008.1
20260505225522 17 180 3.2 14.5 0.00 0.00 0.00 69 1008.1
20260505225020 17 172 3.2 14.5 0.00 0.00 0.00 68 1008.1
20260505224520 17 192 4.8 16.1 0.00 0.00 0.00 68 1008.1
20260505224019 17 263 4.8 16.1 0.00 0.00 0.00 68 1008.0
20260505223525 17 194 3.2 11.3 0.00 0.00 0.00 68 1008.0
20260505223021 17 193 1.6 16.1 0.00 0.00 0.00 68 1007.9
20260505222519 17 180 6.4 16.1 0.00 0.00 0.00 67 1007.8
20260505222019 18 223 3.2 11.3 0.00 0.00 0.00 67 1007.8
20260505221519 18 188 3.2 16.1 0.00 0.00 0.00 67 1007.7
20260505221018 18 204 3.2 16.1 0.00 0.00 0.00 66 1007.8
20260505220518 18 214 3.2 12.9 0.00 0.00 0.00 66 1007.9
20260505220020 18 204 4.8 9.7 0.00 0.00 0.00 65 1007.8
20260505215619 18 202 1.6 9.7 0.00 0.00 0.00 65 1007.7
20260505215018 18 195 1.6 9.7 0.00 0.00 0.00 65 1007.7
20260505214517 18 234 1.6 9.7 0.00 0.00 0.00 65 1007.7
20260505214016 18 221 1.6 9.7 0.00 0.00 0.00 65 1007.7
20260505213516 18 158 3.2 8.0 0.00 0.00 0.00 66 1007.7
20260505213016 18 201 1.6 6.4 0.00 0.00 0.00 67 1007.6
20260505212516 18 197 1.6 8.0 0.00 0.00 0.00 67 1007.6
20260505212017 18 175 1.6 8.0 0.00 0.00 0.00 66 1007.7
20260505211517 18 166 1.6 8.0 0.00 0.00 0.00 65 1007.6
20260505211015 19 195 1.6 8.0 0.00 0.00 0.00 63 1007.6
20260505210516 20 230 0.0 6.4 0.00 0.00 0.00 62 1007.5
20260505210023 20 184 1.6 6.4 0.00 0.00 0.00 61 1007.6
20260505205515 21 225 0.0 6.4 0.00 0.00 0.00 60 1007.2
20260505205014 21 201 0.0 9.7 0.00 0.00 0.00 60 1007.2
20260505204514 21 171 1.6 11.3 0.00 0.00 0.00 58 1007.1
20260505204013 22 204 3.2 11.3 0.00 0.00 0.00 58 1007.3
20260505203512 22 228 3.2 11.3 0.00 0.00 0.00 58 1007.5
20260505203012 22 209 1.6 9.7 0.00 0.00 0.00 59 1007.4
20260505202512 21 231 1.6 12.9 0.00 0.00 0.00 59 1007.5
20260505202014 21 206 1.6 12.9 0.00 0.00 0.00 59 1007.5
20260505201512 21 206 1.6 12.9 0.00 0.00 0.00 59 1007.5
20260505201011 22 202 0.0 8.0 0.00 0.00 0.00 59 1007.6
20260505200514 22 327 1.6 9.7 0.00 0.00 0.00 59 1007.5
20260505200022 22 202 3.2 9.7 0.00 0.00 0.00 58 1007.5
20260505195514 22 223 1.6 9.7 0.00 0.00 0.00 58 1007.3
20260505195009 22 207 3.2 9.7 0.00 0.00 0.00 57 1007.4
20260505194509 22 171 1.6 9.7 0.00 0.00 0.00 56 1007.5
20260505194007 22 207 1.6 6.4 0.00 0.00 0.00 56 1007.6
20260505193507 23 192 0.0 6.4 0.00 0.00 0.00 56 1007.7
20260505193005 23 211 1.6 6.4 0.00 0.00 0.00 56 1007.7
20260505192505 22 189 0.0 8.0 0.00 0.00 0.00 58 1007.7
20260505192005 22 209 0.0 8.0 0.00 0.00 0.00 57 1007.7
20260505191504 22 198 1.6 6.4 0.00 0.00 0.00 58 1007.8
20260505191009 22 202 0.0 6.4 0.00 0.00 0.00 58 1007.8
20260505190504 22 209 1.6 8.0 0.00 0.00 0.00 58 1007.9
20260505190004 22 216 0.0 8.0 0.00 0.00 0.00 58 1007.8
20260505185503 22 157 1.6 6.4 0.00 0.00 0.00 58 1007.8
20260505185002 22 217 1.6 6.4 0.00 0.00 0.00 58 1007.8
20260505184502 22 191 1.6 4.8 0.00 0.00 0.00 58 1007.8
20260505184001 22 207 1.6 8.0 0.00 0.00 0.00 58 1007.8
20260505183603 22 204 1.6 8.0 0.00 0.00 0.00 58 1007.8
20260505183100 22 223 1.6 6.4 0.00 0.00 0.00 60 1008.0
20260505182600 22 189 0.0 6.4 0.00 0.00 0.00 60 1008.0
20260505182100 22 254 1.6 6.4 0.00 0.00 0.00 61 1008.0
20260505181601 22 216 0.0 6.4 0.00 0.00 0.00 60 1008.0
20260505181059 22 202 1.6 6.4 0.00 0.00 0.00 59 1008.1
20260505180558 22 228 0.0 6.4 0.00 0.00 0.00 58 1008.0
20260505180059 23 230 0.0 6.4 0.00 0.00 0.00 57 1008.0
20260505175559 23 183 0.0 8.0 0.00 0.00 0.00 56 1008.1
20260505175057 23 206 1.6 8.0 0.00 0.00 0.00 56 1008.1
20260505174603 23 158 1.6 9.7 0.00 0.00 0.00 56 1008.2
20260505174057 23 188 1.6 9.7 0.00 0.00 0.00 55 1008.2
20260505173555 23 192 1.6 9.7 0.00 0.00 0.00 56 1008.3
20260505173056 23 219 1.6 8.0 0.00 0.00 0.00 56 1008.4
20260505172555 23 140 1.6 8.0 0.00 0.00 0.00 56 1008.4
20260505172054 23 222 1.6 11.3 0.00 0.00 0.00 54 1008.4
20260505171554 23 221 1.6 11.3 0.00 0.00 0.00 56 1008.4
20260505171053 23 228 0.0 8.0 0.00 0.00 0.00 55 1008.4
20260505170552 23 198 3.2 8.0 0.00 0.00 0.00 54 1008.4
20260505170052 23 209 0.0 6.4 0.00 0.00 0.00 57 1008.4
20260505165549 23 233 0.0 6.4 0.00 0.00 0.00 58 1008.5
20260505165047 23 173 1.6 6.4 0.00 0.00 0.00 59 1008.6
20260505164610 22 208 0.0 6.4 0.00 0.00 0.00 61 1008.7
20260505164047 22 249 0.0 6.4 0.00 0.00 0.00 60 1008.8
20260505163542 22 207 0.0 6.4 0.00 0.00 0.00 62 1008.9
20260505163050 21 204 1.6 6.4 0.00 0.00 0.00 61 1008.9
20260505162539 21 205 0.0 4.8 0.00 0.00 0.00 64 1008.9
20260505162038 20 220 0.0 4.8 0.00 0.00 0.00 64 1009.0
20260505161537 20 219 0.0 8.0 0.00 0.00 0.00 68 1009.1
20260505161036 20 209 0.0 8.0 0.00 0.00 0.00 67 1009.1
20260505160534 19 194 1.6 6.4 0.00 0.00 0.00 67 1009.2
20260505153030 18 200 3.2 6.4 0.00 0.00 0.00 69 1009.2
20260505152531 18 196 1.6 6.4 0.00 0.00 0.00 69 1009.2
20260505152030 18 195 3.2 8.0 0.00 0.00 0.00 69 1009.2
20260505151529 18 175 1.6 8.0 0.00 0.00 0.00 69 1009.2
20260505151030 18 162 1.6 8.0 0.00 0.00 0.00 68 1009.1
20260505150529 18 224 0.0 4.8 0.00 0.00 0.00 68 1009.2
20260505140522 18 218 0.0 4.8 0.00 0.00 0.00 69 1009.6
20260505125009 16 220 1.6 8.0 0.00 0.00 0.00 76 1009.9
20260505124509 16 193 1.6 6.4 0.00 0.00 0.00 77 1010.0
20260505124006 15 194 1.6 8.0 0.00 0.00 0.00 77 1009.9
20260505123505 15 201 1.6 8.0 0.00 0.00 0.00 78 1009.9
20260505123003 15 199 0.0 6.4 0.00 0.00 0.00 79 1009.7
20260505122502 15 211 1.6 6.4 0.00 0.00 0.00 79 1009.6
20260505122002 15 174 1.6 4.8 0.00 0.00 0.00 80 1009.7
20260505121600 14 192 1.6 8.0 0.00 0.00 0.00 80 1009.8
20260505121103 14 195 1.6 8.0 0.00 0.00 0.00 81 1009.7
20260505120559 14 190 1.6 6.4 0.00 0.00 0.00 81 1009.7
20260505120116 13 192 1.6 6.4 0.00 0.00 0.00 82 1009.7
20260505115555 13 187 1.6 6.4 0.00 0.00 0.00 82 1009.6
20260505115058 13 196 3.2 11.3 0.00 0.00 0.00 82 1009.7
20260505114553 13 186 1.6 11.3 0.00 0.00 0.00 83 1009.7
20260505114052 13 190 0.0 6.4 0.00 0.00 0.00 84 1009.7
20260505113550 12 195 0.0 6.4 0.00 0.00 0.00 84 1009.6
20260505113054 12 179 0.0 6.4 0.00 0.00 0.00 84 1009.7
20260505112552 12 183 1.6 6.4 0.00 0.00 0.00 85 1009.7
20260505112048 12 185 0.0 4.8 0.00 0.00 0.00 85 1009.7
20260505111547 12 199 0.0 6.4 0.00 0.00 0.00 86 1009.7
20260505111047 12 198 0.0 6.4 0.00 0.00 0.00 86 1009.7
20260505110545 11 217 0.0 3.2 0.00 0.00 0.00 87 1009.6
20260505102039 10 209 0.0 0.0 0.00 0.00 0.00 91 1009.4
20260505101539 10 209 0.0 0.0 0.00 0.00 0.00 91 1009.3
20260505101039 10 209 0.0 0.0 0.00 0.00 0.00 91 1009.3
20260505100538 10 207 0.0 0.0 0.00 0.00 0.00 91 1009.2
20260505100038 10 202 0.0 0.0 0.00 0.00 0.00 91 1009.3
20260505095537 10 202 0.0 0.0 0.00 0.00 0.00 91 1009.2
20260505095037 10 202 0.0 0.0 0.00 0.00 0.00 91 1009.1
20260505094540 10 202 0.0 0.0 0.00 0.00 0.00 90 1009.2
20260505094036 10 202 0.0 0.0 0.00 0.00 0.00 90 1009.2
20260505093535 10 202 0.0 0.0 0.00 0.00 0.00 90 1009.4
20260505093035 10 202 0.0 0.0 0.00 0.00 0.00 90 1009.4
20260505092534 10 202 0.0 0.0 0.00 0.00 0.00 89 1009.4
20260505092034 10 201 0.0 0.0 0.00 0.00 0.00 89 1009.3
20260505091534 10 201 0.0 0.0 0.00 0.00 0.00 89 1009.3
20260505091036 10 218 0.0 0.0 0.00 0.00 0.00 89 1009.4
20260505090533 10 192 0.0 0.0 0.00 0.00 0.00 89 1009.4
20260505090037 10 192 0.0 0.0 0.00 0.00 0.00 89 1009.4
20260505085534 11 197 0.0 0.0 0.00 0.00 0.00 89 1009.5
20260505085033 11 203 0.0 0.0 0.00 0.00 0.00 89 1009.6
20260505084531 11 204 0.0 0.0 0.00 0.00 0.00 89 1009.5
20260505084031 11 176 0.0 0.0 0.00 0.00 0.00 89 1009.5
20260505083531 11 196 0.0 1.6 0.00 0.00 0.00 89 1009.5
20260505083030 11 186 0.0 1.6 0.00 0.00 0.00 89 1009.6
20260505082530 11 185 0.0 1.6 0.00 0.00 0.00 89 1009.5
20260505082030 10 181 0.0 0.0 0.00 0.00 0.00 89 1009.5
20260505081541 10 203 0.0 0.0 0.00 0.00 0.00 89 1009.5
20260505081030 10 197 0.0 0.0 0.00 0.00 0.00 89 1009.6
20260505080530 10 204 0.0 0.0 0.00 0.00 0.00 89 1009.6
20260505080033 10 207 0.0 0.0 0.00 0.00 0.00 89 1009.6
20260505075528 10 195 0.0 0.0 0.00 0.00 0.00 88 1009.6
20260505075031 10 195 0.0 0.0 0.00 0.00 0.00 87 1009.6
20260505074527 10 195 0.0 0.0 0.00 0.00 0.00 87 1009.7
20260505074027 10 195 0.0 0.0 0.00 0.00 0.00 87 1009.6
20260505073531 10 195 0.0 3.2 0.00 0.00 0.00 87 1009.5
20260505073038 11 195 0.0 3.2 0.00 0.00 0.00 87 1009.5
20260505072526 10 190 0.0 3.2 0.00 0.00 0.00 88 1009.6
20260505072027 10 204 0.0 0.0 0.00 0.00 0.00 88 1009.6
20260505071543 10 204 0.0 0.0 0.00 0.00 0.00 88 1009.6
20260505071025 10 204 0.0 0.0 0.00 0.00 0.00 87 1009.6
20260505070526 10 204 0.0 0.0 0.00 0.00 0.00 87 1009.7
20260505070024 10 199 0.0 0.0 0.00 0.00 0.00 87 1009.7
20260505065527 10 199 0.0 0.0 0.00 0.00 0.00 87 1009.7
20260505065026 10 199 0.0 0.0 0.00 0.00 0.00 87 1009.7
20260505064525 10 202 0.0 0.0 0.00 0.00 0.00 87 1009.7
20260505064026 10 202 0.0 0.0 0.00 0.00 0.00 87 1009.8
20260505063522 10 199 0.0 0.0 0.00 0.00 0.00 86 1009.8
20260505063022 10 200 0.0 0.0 0.00 0.00 0.00 86 1009.8
20260505062520 10 200 0.0 0.0 0.00 0.00 0.00 85 1009.8
20260505062020 11 199 0.0 0.0 0.00 0.00 0.00 85 1009.8
20260505061520 11 199 0.0 0.0 0.00 0.00 0.00 85 1009.8
20260505061022 11 199 0.0 3.2 0.00 0.00 0.00 85 1009.8
20260505060523 11 199 0.0 3.2 0.00 0.00 0.00 85 1009.8
20260505060019 11 192 0.0 1.6 0.00 0.00 0.00 85 1009.9
20260505055518 11 178 0.0 3.2 0.00 0.00 0.00 85 1009.9
20260505055018 11 190 0.0 3.2 0.00 0.00 0.00 86 1009.9
20260505054517 10 191 0.0 0.0 0.00 0.00 0.00 86 1010.0
20260505054017 10 203 0.0 0.0 0.00 0.00 0.00 86 1009.9
20260505053515 10 202 0.0 0.0 0.00 0.00 0.00 86 1010.0
20260505053023 10 197 0.0 0.0 0.00 0.00 0.00 86 1010.0
20260505052518 10 196 0.0 0.0 0.00 0.00 0.00 86 1010.0
20260505052015 10 204 0.0 0.0 0.00 0.00 0.00 86 1010.0
20260505051527 10 202 0.0 0.0 0.00 0.00 0.00 86 1009.9
20260505051016 10 202 0.0 0.0 0.00 0.00 0.00 85 1009.9
20260505050516 10 203 0.0 0.0 0.00 0.00 0.00 85 1009.9
20260505041513 11 197 0.0 0.0 0.00 0.00 0.00 83 1010.2
20260505041005 11 197 0.0 1.6 0.00 0.00 0.00 83 1010.2
20260505040504 11 194 0.0 1.6 0.00 0.00 0.00 83 1010.2
20260505040006 11 195 0.0 4.8 0.00 0.00 0.00 82 1010.3
20260505035502 11 192 1.6 4.8 0.00 0.00 0.00 82 1010.2
20260505035002 11 218 0.0 4.8 0.00 0.00 0.00 82 1010.2
20260505034502 11 194 0.0 4.8 0.00 0.00 0.00 82 1010.2
20260505034002 11 192 0.0 4.8 0.00 0.00 0.00 82 1010.2
20260505033502 11 181 0.0 3.2 0.00 0.00 0.00 82 1010.2
20260505033002 11 202 0.0 0.0 0.00 0.00 0.00 82 1010.1
20260505032501 11 209 0.0 0.0 0.00 0.00 0.00 81 1010.1
20260505032004 11 202 0.0 0.0 0.00 0.00 0.00 81 1010.1
20260505031501 11 196 0.0 1.6 0.00 0.00 0.00 80 1010.1
20260505031000 11 196 0.0 1.6 0.00 0.00 0.00 80 1010.2
20260505030600 11 187 0.0 1.6 0.00 0.00 0.00 80 1010.2
20260505030105 11 187 0.0 1.6 0.00 0.00 0.00 79 1010.2
20260505025600 11 193 0.0 3.2 0.00 0.00 0.00 79 1010.2
20260505025100 11 193 0.0 4.8 0.00 0.00 0.00 79 1010.2
20260505024601 12 192 0.0 6.4 0.00 0.00 0.00 79 1010.2
20260505024102 11 197 1.6 6.4 0.00 0.00 0.00 79 1010.2
20260505023559 12 216 0.0 0.0 0.00 0.00 0.00 78 1010.2
20260505023108 12 202 0.0 0.0 0.00 0.00 0.00 78 1010.2
20260505022559 12 229 0.0 0.0 0.00 0.00 0.00 78 1010.3
20260505022059 12 198 0.0 0.0 0.00 0.00 0.00 77 1010.3
20260505021601 12 202 0.0 1.6 0.00 0.00 0.00 77 1010.3
20260505021057 12 202 0.0 3.2 0.00 0.00 0.00 76 1010.4
20260505020558 12 204 0.0 4.8 0.00 0.00 0.00 76 1010.3
20260505015558 12 208 0.0 4.8 0.00 0.00 0.00 76 1010.4
20260505015157 12 199 0.0 4.8 0.00 0.00 0.00 76 1010.4
20260505014556 12 203 0.0 4.8 0.00 0.00 0.00 76 1010.3
20260505014055 12 197 0.0 0.0 0.00 0.00 0.00 75 1010.3
20260505013556 12 194 0.0 1.6 0.00 0.00 0.00 75 1010.3
20260505013056 12 176 0.0 1.6 0.00 0.00 0.00 75 1010.2
20260505012556 12 200 0.0 1.6 0.00 0.00 0.00 74 1010.2
20260505012058 12 197 0.0 3.2 0.00 0.00 0.00 74 1010.1
20260505011556 12 214 0.0 3.2 0.00 0.00 0.00 73 1010.0
20260505011057 13 192 0.0 3.2 0.00 0.00 0.00 73 1009.9
20260505010555 13 182 0.0 4.8 0.00 0.00 0.00 72 1009.9
20260505005554 13 213 0.0 4.8 0.00 0.00 0.00 71 1009.6
20260505005054 13 202 1.6 6.4 0.00 0.00 0.00 70 1009.4
20260505004554 13 185 1.6 6.4 0.00 0.00 0.00 70 1009.3
20260505004053 13 196 0.0 3.2 0.00 0.00 0.00 69 1009.2
20260505003557 13 202 0.0 4.8 0.00 0.00 0.00 69 1009.2